Location: Unspecified
(0.0000°N, 0.0000°E)
Time: 09:47:57
(UTC+02:00)

Ariane H10 - Visible Passes

Search period start: 29 July 2016 00:00
Search period end: 08 August 2016 00:00
Orbit: 293 x 24091 km, 3.8° (Epoch: 28 July)

Date Brightness Start Highest point End Pass type
(mag) Time Alt. Az. Time Alt. Az. Time Alt. Az.
29 Jul 7.0 07:31:31 10° W 09:47:57 35° W 13:20:00 10° E visible
29 Jul 2.3 20:34:53 10° W 20:37:14 65° S 20:43:48 10° E visible
30 Jul 8.2 04:24:15 61° W 06:31:21 90° E 10:06:42 10° E visible
31 Jul 7.0 01:23:47 48° E 01:23:47 48° E 06:32:16 10° E visible
31 Jul 3.4 21:35:32 10° W 21:38:57 68° S 21:42:34 35° ESE visible
01 Aug 8.4 05:23:10 41° W 07:37:52 71° W 11:10:00 10° E visible
02 Aug 8.3 02:22:39 70° ESE 02:22:39 70° ESE 07:47:05 10° E visible
02 Aug 4.4 22:36:00 10° W 23:22:07 11° E 23:24:04 10° E visible
03 Aug 7.8 06:21:58 22° W 08:40:29 53° W 12:12:05 10° E visible
04 Aug 8.2 03:21:25 85° SW 03:26:17 86° S 08:55:10 10° E visible
04 Aug 5.7 23:36:32 10° W 00:20:51 28° E 04:52:32 10° E visible
05 Aug 7.0 07:25:31 10° W 09:41:08 35° W 13:13:19 10° E visible
05 Aug 2.4 20:28:10 10° W 20:30:32 60° S 20:37:14 10° E visible
06 Aug 8.3 04:20:06 64° W 06:05:54 89° NW 09:59:58 10° E visible
07 Aug 6.8 01:19:29 47° E 01:19:29 47° E 06:25:45 10° E visible
07 Aug 3.5 21:28:26 10° W 21:31:54 66° S 21:36:22 31° ESE visible
